TimeEST,TemperatureF,Dew PointF,Humidity,Sea Level PressureIn,VisibilityMPH,Wind Direction,Wind SpeedMPH,Gust SpeedMPH,PrecipitationIn,Events,Conditions,WindDirDegrees,DateUTC
12:58 AM,56.3,56.1,99,30.11,10.0,NNW,3.5,-,N/A,,Mostly Cloudy,340,2013-11-07 05:58:00
1:58 AM,56.8,56.5,99,30.09,10.0,Calm,Calm,-,N/A,,Clear,0,2013-11-07 06:58:00
2:08 AM,55.4,55.4,100,30.07,2.0,Calm,Calm,-,N/A,,Clear,0,2013-11-07 07:08:00
2:18 AM,55.4,55.4,100,30.07,0.8,North,-9999.0,-,N/A,,Clear,0,2013-11-07 07:18:00
2:28 AM,55.4,55.4,100,30.06,0.5,Calm,Calm,-,N/A,Fog,Fog,0,2013-11-07 07:28:00
2:38 AM,53.6,53.6,100,30.06,1.0,NNW,1.2,-,N/A,,Clear,330,2013-11-07 07:38:00
2:48 AM,55.4,55.4,100,30.06,0.5,NW,2.3,-,N/A,Fog,Fog,320,2013-11-07 07:48:00
2:58 AM,53.6,53.6,100,30.07,1.0,NNW,1.2,-,N/A,,Scattered Clouds,330,2013-11-07 07:58:00
3:08 AM,53.6,53.6,100,30.06,3.0,NW,2.3,-,N/A,,Mostly Cloudy,310,2013-11-07 08:08:00
3:58 AM,53.6,53.6,100,30.06,1.2,Calm,Calm,-,N/A,,Partly Cloudy,0,2013-11-07 08:58:00
4:08 AM,53.6,53.6,100,30.05,6.0,Calm,Calm,-,N/A,,Clear,0,2013-11-07 09:08:00
4:58 AM,55.0,55.0,100,30.04,10.0,Calm,Calm,-,N/A,,Mostly Cloudy,0,2013-11-07 09:58:00
5:58 AM,54.5,54.5,100,30.04,10.0,West,1.2,-,N/A,,Scattered Clouds,270,2013-11-07 10:58:00
6:58 AM,54.0,54.0,100,30.04,10.0,Calm,Calm,-,N/A,,Mostly Cloudy,0,2013-11-07 11:58:00
7:58 AM,55.8,55.8,100,30.05,10.0,Calm,Calm,-,N/A,,Mostly Cloudy,0,2013-11-07 12:58:00
8:58 AM,58.6,58.3,99,30.06,10.0,WNW,1.2,-,N/A,,Mostly Cloudy,300,2013-11-07 13:58:00
9:58 AM,64.0,59.0,84,30.06,10.0,Variable,2.3,-,N/A,,Mostly Cloudy,0,2013-11-07 14:58:00
10:58 AM,69.8,60.8,73,30.05,10.0,WSW,5.8,-,N/A,,Mostly Cloudy,240,2013-11-07 15:58:00
11:48 AM,71.6,60.8,69,30.01,10.0,SSW,6.9,-,N/A,,Mostly Cloudy,200,2013-11-07 16:48:00
11:58 AM,70.2,60.8,72,30.02,10.0,South,5.8,-,N/A,,Mostly Cloudy,190,2013-11-07 16:58:00
12:48 PM,75.2,60.8,61,29.97,10.0,SW,9.2,-,N/A,,Mostly Cloudy,230,2013-11-07 17:48:00
12:58 PM,73.4,61.5,66,29.98,10.0,WSW,4.6,-,N/A,,Mostly Cloudy,240,2013-11-07 17:58:00
1:58 PM,75.7,60.6,59,29.95,10.0,West,9.2,-,N/A,,Mostly Cloudy,260,2013-11-07 18:58:00
2:58 PM,75.7,59.2,56,29.96,10.0,West,11.5,-,N/A,,Scattered Clouds,270,2013-11-07 19:58:00
3:58 PM,75.0,59.2,58,29.96,10.0,WNW,12.7,-,N/A,,Mostly Cloudy,300,2013-11-07 20:58:00
4:58 PM,71.2,58.1,63,29.98,10.0,WNW,5.8,-,N/A,,Scattered Clouds,290,2013-11-07 21:58:00
5:58 PM,65.7,57.0,74,30.01,10.0,NNW,2.3,-,N/A,,Partly Cloudy,340,2013-11-07 22:58:00
6:58 PM,58.5,55.9,91,30.03,10.0,NNW,5.8,-,N/A,,Partly Cloudy,330,2013-11-07 23:58:00
7:58 PM,61.3,48.0,62,30.04,10.0,North,9.2,-,N/A,,Scattered Clouds,360,2013-11-08 00:58:00
8:58 PM,61.5,39.7,45,30.07,10.0,NNE,8.1,19.6,N/A,,Mostly Cloudy,20,2013-11-08 01:58:00
9:58 PM,58.5,33.6,39,30.10,10.0,NNW,11.5,-,N/A,,Mostly Cloudy,340,2013-11-08 02:58:00
10:58 PM,54.3,34.7,48,30.11,10.0,North,9.2,-,N/A,,Scattered Clouds,350,2013-11-08 03:58:00
11:58 PM,53.4,32.4,45,30.13,10.0,North,6.9,-,N/A,,Scattered Clouds,360,2013-11-08 04:58:00